Portada
METAR-TAF:

METAR-TAF

Aeropuertos :

Paso de los Libres, Argentina

Aeropuerto Internacional de Paso de los Libres

latitud: 29-41S, longitud: 057-09W, altitud: 69 m

Observación

El informe se hizo hace 57 minutos, a las 19:00 UTC
Viento 12 kt del noroeste
Temperatura 30°C
Humedad 29%
Presión 1010 hPa
Visibilidad 10 km o más
sin nubes por debajo de 1500 m y sin presencia de cumulonimbus.

METAR: SARL 191900Z 32012KT CAVOK 30/10 Q1010

Hora: 16:57 (19:57 UTC)


TAF: falta

Observaciones y pronósticos meteorológicos de más de 4000 aeropuertos (mensajes METAR y TAF).

Los puntos amarillos y rojos representan las estaciones disponibles.

Ponga el ratón en el punto deseado para ver el nombre de la estación.

Haga clic para ver las observaciones y los pronósticos meteorológicos.

Para cambiar el mapa : haga clic en los botones verdes con una cruz de color negro para hacer un zoom, en el botón verde con un guión para alejar o en las flechas verdes para mapas adyacentes.


METAR-TAF: